User: anonymous
Location: Natural Bridges National Monument
(37.6093°N, 109.9767°W)
Time: 02:45:53
(UTC-06:00)
Language:

Cosmos 1727 Rocket - Orbit

View from above orbital plane
View from above orbital plane
View from above satellite
View from above satellite

Ground track
Ground track

The orbit data is extracted from the following two-line orbital elements,

1 16511U 86008B   14229.73050457  .00000146  00000-0  13546-3 0  5578
2 16511 082.9422 267.0335 0022809 292.8800 205.5370 13.75769082434033
Epoch (UTC): 17 August 2014 17:31:55
Eccentricity: 0.0022809
inclination: 82.9422°
perigee height: 962 km
apogee height: 996 km
right ascension of ascending node: 267.0335°
argument of perigee: 292.8800°
revolutions per day: 13.75769082
mean anomaly at epoch: 205.5370°
orbit number at epoch: 43403

The dashed part of the orbit path shows where the satellite is in the earth's shadow,  

DLR